| time (UTC) | temp F | wind direction | speed knots | gust knots | rain 1hr in | rain 24hr in | rain mn in | humidity % | barometer mb |
| 20260507192005 | 55 | 21 | 0.9 | 1.7 | 0.00 | 0.02 | 0.02 | 81 | 1001.2 |
| 20260507191504 | 55 | 17 | 0.9 | 1.7 | 0.00 | 0.02 | 0.02 | 82 | 1001.3 |
| 20260507191004 | 55 | 45 | 0.9 | 1.7 | 0.00 | 0.02 | 0.02 | 82 | 1001.1 |
| 20260507190504 | 56 | 4 | 0.0 | 0.9 | 0.00 | 0.02 | 0.02 | 82 | 1001.2 |
| 20260507190005 | 56 | 8 | 0.9 | 1.7 | 0.00 | 0.02 | 0.02 | 82 | 1000.9 |
| 20260507185504 | 56 | 13 | 0.0 | 1.7 | 0.00 | 0.02 | 0.02 | 82 | 1001.1 |
| 20260507185006 | 56 | 14 | 0.0 | 1.7 | 0.00 | 0.02 | 0.02 | 81 | 1001.1 |
| 20260507184505 | 56 | 28 | 0.9 | 1.7 | 0.00 | 0.02 | 0.02 | 79 | 1001.4 |
| 20260507184004 | 56 | 53 | 0.9 | 1.7 | 0.00 | 0.02 | 0.02 | 78 | 1001.2 |
| 20260507183505 | 56 | 306 | 0.9 | 0.9 | 0.00 | 0.02 | 0.02 | 80 | 1001.1 |
| 20260507183004 | 56 | 356 | 0.0 | 0.9 | 0.00 | 0.02 | 0.02 | 79 | 1001.1 |
| 20260507182504 | 56 | 343 | 0.9 | 0.9 | 0.00 | 0.02 | 0.02 | 78 | 1001.0 |
| 20260507182005 | 56 | 344 | 0.0 | 0.9 | 0.00 | 0.02 | 0.02 | 79 | 1001.0 |
| 20260507181504 | 56 | 334 | 0.0 | 0.9 | 0.00 | 0.02 | 0.02 | 80 | 1001.1 |
| 20260507181005 | 56 | 339 | 0.0 | 0.9 | 0.00 | 0.02 | 0.02 | 79 | 1001.0 |
| 20260507180504 | 56 | 343 | 0.0 | 0.9 | 0.00 | 0.02 | 0.02 | 80 | 1001.5 |
| 20260507175504 | 56 | 342 | 0.0 | 0.9 | 0.00 | 0.02 | 0.02 | 76 | 1001.0 |
| 20260507175005 | 56 | 328 | 0.0 | 1.7 | 0.00 | 0.02 | 0.02 | 80 | 1001.4 |
| 20260507174504 | 56 | 319 | 0.0 | 1.7 | 0.00 | 0.02 | 0.02 | 82 | 1001.6 |
| 20260507174004 | 56 | 354 | 0.0 | 1.7 | 0.00 | 0.02 | 0.02 | 82 | 1001.5 |
| 20260507173504 | 56 | 350 | 0.0 | 1.7 | 0.00 | 0.02 | 0.02 | 81 | 1001.5 |
| 20260507173005 | 56 | 3 | 0.9 | 0.9 | 0.00 | 0.02 | 0.02 | 82 | 1001.8 |
| 20260507172504 | 55 | 352 | 0.0 | 1.7 | 0.00 | 0.02 | 0.02 | 82 | 1001.7 |
| 20260507172005 | 55 | 348 | 0.9 | 1.7 | 0.00 | 0.02 | 0.02 | 83 | 1001.8 |
| 20260507171005 | 56 | 53 | 0.9 | 1.7 | 0.00 | 0.02 | 0.02 | 85 | 1001.6 |
| 20260507170004 | 56 | 70 | 0.9 | 1.7 | 0.00 | 0.02 | 0.02 | 85 | 1001.7 |
| 20260507165506 | 56 | 54 | 0.9 | 1.7 | 0.00 | 0.02 | 0.02 | 84 | 1001.9 |
| 20260507165004 | 55 | 43 | 0.0 | 1.7 | 0.00 | 0.02 | 0.02 | 84 | 1002.2 |
| 20260507164505 | 55 | 98 | 0.9 | 1.7 | 0.00 | 0.02 | 0.02 | 83 | 1002.1 |
| 20260507164005 | 55 | 57 | 0.9 | 4.3 | 0.00 | 0.02 | 0.02 | 85 | 1002.4 |
| 20260507163505 | 55 | 47 | 0.9 | 4.3 | 0.00 | 0.02 | 0.02 | 84 | 1002.0 |
| 20260507163005 | 55 | 52 | 0.0 | 4.3 | 0.00 | 0.02 | 0.02 | 85 | 1002.1 |
| 20260507162504 | 55 | 50 | 0.0 | 4.3 | 0.00 | 0.02 | 0.02 | 84 | 1002.3 |
| 20260507162006 | 55 | 33 | 0.9 | 4.3 | 0.00 | 0.02 | 0.02 | 84 | 1002.3 |
| 20260507161504 | 55 | 245 | 1.7 | 2.6 | 0.00 | 0.02 | 0.02 | 84 | 1002.2 |
| 20260507161005 | 55 | 44 | 0.9 | 1.7 | 0.00 | 0.02 | 0.02 | 84 | 1002.2 |
| 20260507160004 | 55 | 49 | 0.9 | 2.6 | 0.00 | 0.02 | 0.02 | 84 | 1002.1 |
| 20260507155504 | 56 | 51 | 0.0 | 1.7 | 0.00 | 0.02 | 0.02 | 84 | 1002.0 |
| 20260507155006 | 56 | 36 | 0.9 | 1.7 | 0.00 | 0.02 | 0.02 | 85 | 1002.3 |
| 20260507154504 | 56 | 39 | 0.9 | 1.7 | 0.00 | 0.02 | 0.02 | 85 | 1002.3 |
| 20260507154005 | 56 | 27 | 0.9 | 1.7 | 0.00 | 0.02 | 0.02 | 86 | 1002.1 |
| 20260507153505 | 56 | 38 | 0.9 | 2.6 | 0.00 | 0.02 | 0.02 | 85 | 1002.2 |
| 20260507153004 | 55 | 39 | 0.0 | 2.6 | 0.00 | 0.02 | 0.02 | 85 | 1002.3 |
| 20260507152504 | 55 | 34 | 0.0 | 5.2 | 0.00 | 0.02 | 0.02 | 86 | 1002.2 |
| 20260507152004 | 56 | 31 | 0.9 | 5.2 | 0.00 | 0.02 | 0.02 | 86 | 1002.1 |
| 20260507151004 | 56 | 3 | 0.0 | 0.9 | 0.00 | 0.02 | 0.02 | 88 | 1002.0 |
| 20260507150504 | 56 | 346 | 0.9 | 0.9 | 0.00 | 0.02 | 0.02 | 90 | 1001.9 |
| 20260507150005 | 56 | 320 | 0.0 | 0.9 | 0.00 | 0.02 | 0.02 | 90 | 1002.3 |
| 20260507145504 | 56 | 320 | 0.0 | 0.9 | 0.00 | 0.02 | 0.02 | 90 | 1002.2 |
| 20260507145004 | 56 | 320 | 0.0 | 0.9 | 0.00 | 0.02 | 0.02 | 89 | 1002.1 |
| 20260507144504 | 56 | 319 | 0.0 | 0.9 | 0.00 | 0.02 | 0.02 | 90 | 1002.3 |
| 20260507144004 | 56 | 318 | 0.9 | 1.7 | 0.00 | 0.02 | 0.02 | 89 | 1002.3 |
| 20260507143004 | 56 | 22 | 0.9 | 1.7 | 0.00 | 0.02 | 0.02 | 88 | 1002.1 |
| 20260507142504 | 56 | 28 | 0.0 | 1.7 | 0.00 | 0.02 | 0.02 | 90 | 1002.1 |
| 20260507141504 | 55 | 353 | 0.0 | 1.7 | 0.00 | 0.02 | 0.02 | 92 | 1002.2 |
| 20260507141004 | 55 | 337 | 0.0 | 1.7 | 0.00 | 0.02 | 0.02 | 93 | 1001.9 |
| 20260507140505 | 56 | 320 | 0.9 | 1.7 | 0.00 | 0.02 | 0.02 | 95 | 1002.4 |
| 20260507140006 | 56 | 342 | 0.0 | 0.9 | 0.00 | 0.02 | 0.02 | 95 | 1002.4 |
| 20260507135505 | 56 | 318 | 0.0 | 1.7 | 0.00 | 0.02 | 0.02 | 95 | 1002.4 |
| 20260507134504 | 57 | 296 | 0.0 | 1.7 | 0.00 | 0.02 | 0.02 | 94 | 1002.2 |
| 20260507134004 | 56 | 3 | 0.0 | 1.7 | 0.00 | 0.02 | 0.02 | 94 | 1002.4 |
| 20260507133504 | 56 | 3 | 0.9 | 1.7 | 0.00 | 0.02 | 0.02 | 94 | 1002.2 |
| 20260507133005 | 57 | 3 | 0.9 | 1.7 | 0.00 | 0.02 | 0.02 | 95 | 1002.2 |
| 20260507132504 | 56 | 6 | 0.0 | 1.7 | 0.00 | 0.02 | 0.02 | 95 | 1002.0 |
| 20260507132004 | 56 | 344 | 0.9 | 1.7 | 0.00 | 0.02 | 0.02 | 96 | 1001.7 |
| 20260507131505 | 56 | 342 | 0.0 | 0.9 | 0.00 | 0.02 | 0.02 | 97 | 1001.9 |
| 20260507131004 | 56 | 318 | 0.9 | 0.9 | 0.00 | 0.02 | 0.02 | 97 | 1001.5 |
| 20260507130505 | 56 | 320 | 0.9 | 0.9 | 0.00 | 0.02 | 0.02 | 98 | 1001.7 |
| 20260507130004 | 56 | 319 | 0.0 | 0.9 | 0.00 | 0.02 | 0.02 | 98 | 1001.8 |
| 20260507125504 | 56 | 319 | 0.9 | 0.9 | 0.00 | 0.02 | 0.02 | 98 | 1001.7 |
| 20260507125004 | 56 | 319 | 0.0 | 0.9 | 0.00 | 0.02 | 0.02 | 98 | 1002.0 |
| 20260507124504 | 55 | 319 | 0.0 | 0.9 | 0.00 | 0.02 | 0.02 | 99 | 1002.1 |
| 20260507124004 | 55 | 319 | 0.0 | 0.9 | 0.00 | 0.02 | 0.02 | 99 | 1002.1 |
| 20260507123504 | 55 | 319 | 0.0 | 0.9 | 0.00 | 0.02 | 0.02 | 99 | 1002.1 |
| 20260507122504 | 55 | 319 | 0.0 | 0.9 | 0.00 | 0.02 | 0.02 | 99 | 1002.2 |
| 20260507121005 | 55 | 319 | 0.0 | 0.0 | 0.00 | 0.02 | 0.02 | 99 | 1001.4 |
| 20260507120504 | 55 | 319 | 0.0 | 0.0 | 0.00 | 0.02 | 0.02 | 99 | 1001.6 |
| 20260507120004 | 55 | 319 | 0.0 | 0.9 | 0.00 | 0.02 | 0.02 | 99 | 1001.6 |
| 20260507115005 | 55 | 320 | 0.0 | 0.9 | 0.00 | 0.02 | 0.02 | 99 | 1001.8 |
| 20260507114505 | 55 | 320 | 0.0 | 0.9 | 0.00 | 0.02 | 0.02 | 99 | 1002.0 |
| 20260507114004 | 55 | 320 | 0.0 | 0.9 | 0.00 | 0.02 | 0.02 | 99 | 1001.9 |
| 20260507113504 | 55 | 319 | 0.0 | 0.9 | 0.00 | 0.02 | 0.02 | 99 | 1002.1 |
| 20260507112504 | 55 | 319 | 0.0 | 0.9 | 0.00 | 0.02 | 0.02 | 98 | 1001.7 |
| 20260507112004 | 55 | 319 | 0.0 | 0.9 | 0.00 | 0.02 | 0.02 | 99 | 1001.6 |
| 20260507111506 | 55 | 319 | 0.0 | 0.0 | 0.01 | 0.02 | 0.02 | 98 | 1001.5 |
| 20260507110005 | 55 | 319 | 0.0 | 0.0 | 0.01 | 0.02 | 0.02 | 98 | 1001.5 |
| 20260507105504 | 56 | 319 | 0.0 | 0.0 | 0.01 | 0.02 | 0.02 | 98 | 1001.3 |
| 20260507105004 | 56 | 318 | 0.0 | 0.0 | 0.01 | 0.02 | 0.02 | 98 | 1001.3 |
| 20260507104504 | 56 | 317 | 0.0 | 0.0 | 0.01 | 0.02 | 0.02 | 98 | 1001.3 |
| 20260507104004 | 56 | 316 | 0.0 | 0.0 | 0.01 | 0.02 | 0.02 | 98 | 1001.1 |
| 20260507103504 | 56 | 316 | 0.0 | 0.0 | 0.01 | 0.02 | 0.02 | 98 | 1001.1 |
| 20260507102504 | 56 | 306 | 0.0 | 0.9 | 0.02 | 0.02 | 0.02 | 98 | 1001.1 |
| 20260507102006 | 56 | 314 | 0.0 | 0.9 | 0.02 | 0.02 | 0.02 | 98 | 1000.9 |
| 20260507101003 | 56 | 325 | 0.0 | 0.9 | 0.01 | 0.01 | 0.01 | 98 | 1001.2 |
| 20260507100504 | 56 | 326 | 0.9 | 0.9 | 0.01 | 0.01 | 0.01 | 98 | 1000.9 |
| 20260507100004 | 56 | 318 | 0.9 | 0.9 | 0.01 | 0.01 | 0.01 | 98 | 1000.9 |
| 20260507095504 | 56 | 329 | 0.9 | 0.9 | 0.01 | 0.01 | 0.01 | 98 | 1000.9 |
| 20260507094504 | 57 | 347 | 0.9 | 1.7 | 0.01 | 0.01 | 0.01 | 97 | 1000.8 |
| 20260507093504 | 57 | 348 | 0.9 | 2.6 | 0.01 | 0.01 | 0.01 | 97 | 1000.8 |
| 20260507093004 | 58 | 350 | 0.9 | 2.6 | 0.01 | 0.01 | 0.01 | 97 | 1000.6 |
| 20260507092504 | 59 | 353 | 0.9 | 2.6 | 0.00 | 0.00 | 0.00 | 96 | 1000.8 |
| 20260507092004 | 60 | 350 | 1.7 | 2.6 | 0.00 | 0.00 | 0.00 | 96 | 1000.9 |
| 20260507091505 | 61 | 351 | 0.9 | 1.7 | 0.00 | 0.00 | 0.00 | 96 | 1000.7 |
| 20260507091004 | 62 | 351 | 0.9 | 1.7 | 0.00 | 0.00 | 0.00 | 96 | 1000.5 |
| 20260507090005 | 65 | 342 | 0.9 | 1.7 | 0.00 | 0.00 | 0.00 | 97 | 1000.1 |
| 20260507085504 | 65 | 343 | 0.9 | 0.9 | 0.00 | 0.00 | 0.00 | 96 | 1000.1 |
| 20260507085004 | 65 | 344 | 0.0 | 0.9 | 0.00 | 0.00 | 0.00 | 96 | 1000.3 |
| 20260507084504 | 65 | 344 | 0.0 | 0.9 | 0.00 | 0.00 | 0.00 | 96 | 1000.2 |
| 20260507084003 | 66 | 344 | 0.0 | 0.9 | 0.00 | 0.00 | 0.00 | 96 | 1000.2 |
| 20260507083504 | 66 | 344 | 0.9 | 0.9 | 0.00 | 0.00 | 0.00 | 96 | 999.9 |
| 20260507083004 | 66 | 344 | 0.0 | 0.9 | 0.00 | 0.00 | 0.00 | 95 | 1000.0 |
| 20260507082504 | 66 | 345 | 0.0 | 0.9 | 0.00 | 0.00 | 0.00 | 95 | 999.8 |
| 20260507082004 | 66 | 345 | 0.0 | 0.9 | 0.00 | 0.00 | 0.00 | 95 | 999.7 |
| 20260507081504 | 66 | 344 | 0.9 | 1.7 | 0.00 | 0.00 | 0.00 | 95 | 999.9 |
| 20260507080504 | 66 | 335 | 0.9 | 1.7 | 0.00 | 0.00 | 0.00 | 95 | 999.9 |
| 20260507080005 | 66 | 343 | 1.7 | 1.7 | 0.00 | 0.00 | 0.00 | 95 | 999.8 |
| 20260507075004 | 67 | 300 | 0.0 | 0.0 | 0.00 | 0.00 | 0.00 | 94 | 999.6 |
| 20260507074503 | 67 | 298 | 0.0 | 0.9 | 0.00 | 0.00 | 0.00 | 94 | 999.0 |
| 20260507071004 | 67 | 262 | 0.9 | 1.7 | 0.00 | 0.00 | 0.00 | 93 | 999.6 |
| 20260507070504 | 67 | 278 | 0.0 | 1.7 | 0.00 | 0.00 | 0.00 | 93 | 999.5 |
| 20260507070009 | 67 | 265 | 0.9 | 1.7 | 0.00 | 0.00 | 0.00 | 92 | 999.8 |
| 20260507065504 | 67 | 302 | 0.0 | 1.7 | 0.00 | 0.00 | 0.00 | 92 | 999.7 |
| 20260507065004 | 67 | 309 | 0.9 | 0.9 | 0.00 | 0.00 | 0.00 | 91 | 999.5 |
| 20260507064504 | 68 | 338 | 0.9 | 2.6 | 0.00 | 0.00 | 0.00 | 90 | 999.5 |
| 20260507064003 | 68 | 330 | 0.0 | 2.6 | 0.00 | 0.00 | 0.00 | 89 | 999.5 |
| 20260507063505 | 68 | 235 | 1.7 | 2.6 | 0.00 | 0.00 | 0.00 | 88 | 999.4 |
| 20260507063005 | 68 | 306 | 0.0 | 0.9 | 0.00 | 0.00 | 0.00 | 87 | 999.2 |
| 20260507062003 | 68 | 326 | 0.9 | 1.7 | 0.00 | 0.00 | 0.00 | 87 | 999.4 |
| 20260507061005 | 68 | 254 | 0.0 | 0.9 | 0.00 | 0.00 | 0.00 | 86 | 999.0 |
| 20260507060504 | 68 | 210 | 0.9 | 0.9 | 0.00 | 0.00 | 0.00 | 86 | 999.2 |
| 20260507060003 | 68 | 323 | 0.0 | 0.9 | 0.00 | 0.00 | 0.00 | 87 | 999.3 |
| 20260507055504 | 69 | 236 | 0.9 | 0.9 | 0.00 | 0.00 | 0.00 | 86 | 999.3 |
| 20260507055004 | 69 | 156 | 0.9 | 1.7 | 0.00 | 0.00 | 0.00 | 87 | 999.1 |
| 20260507054504 | 69 | 2 | 0.0 | 1.7 | 0.00 | 0.00 | 0.00 | 87 | 999.3 |
| 20260507053504 | 69 | 274 | 0.0 | 0.9 | 0.00 | 0.00 | 0.00 | 86 | 999.4 |
| 20260507053004 | 69 | 314 | 0.0 | 0.9 | 0.00 | 0.00 | 0.00 | 86 | 999.4 |
| 20260507052505 | 69 | 285 | 0.0 | 2.6 | 0.00 | 0.00 | 0.00 | 86 | 999.5 |
| 20260507051504 | 69 | 0 | 0.0 | 0.9 | 0.00 | 0.00 | 0.00 | 86 | 999.8 |
| 20260507051003 | 69 | 329 | 0.9 | 1.7 | 0.00 | 0.00 | 0.00 | 86 | 999.9 |
| 20260507050004 | 69 | 43 | 0.0 | 4.3 | 0.00 | 0.00 | 0.00 | 85 | 1000.3 |
| 20260507045504 | 69 | 165 | 0.9 | 4.3 | 0.00 | 0.00 | 0.00 | 85 | 1000.5 |
| 20260507044505 | 69 | 343 | 0.9 | 1.7 | 0.00 | 0.00 | 0.00 | 86 | 1000.6 |
| 20260507044003 | 69 | 155 | 0.9 | 1.7 | 0.00 | 0.00 | 0.00 | 85 | 1000.6 |
| 20260507043504 | 69 | 214 | 0.9 | 0.9 | 0.00 | 0.00 | 0.00 | 86 | 1000.5 |
| 20260507043004 | 69 | 271 | 0.9 | 0.9 | 0.00 | 0.00 | 0.00 | 86 | 1000.9 |
| 20260507042504 | 69 | 303 | 0.9 | 0.9 | 0.00 | 0.00 | 0.00 | 85 | 1000.9 |
| 20260507042005 | 69 | 326 | 0.0 | 0.9 | 0.00 | 0.00 | 0.00 | 85 | 1000.9 |
| 20260507041504 | 69 | 320 | 0.9 | 1.7 | 0.00 | 0.00 | 0.00 | 86 | 1000.9 |
| 20260507041003 | 69 | 188 | 0.9 | 1.7 | 0.00 | 0.00 | 0.00 | 86 | 1000.4 |
| 20260507040504 | 68 | 275 | 0.9 | 1.7 | 0.00 | 0.00 | 0.00 | 86 | 1000.5 |
| 20260507040004 | 68 | 6 | 0.0 | 1.7 | 0.00 | 0.00 | 0.00 | 86 | 1000.6 |
| 20260507035505 | 68 | 293 | 0.0 | 0.9 | 0.00 | 0.00 | 0.00 | 86 | 1000.3 |
| 20260507035004 | 69 | 322 | 0.0 | 0.9 | 0.00 | 0.00 | 0.00 | 86 | 1000.3 |
| 20260507034504 | 68 | 313 | 0.9 | 1.7 | 0.00 | 0.00 | 0.00 | 86 | 1000.8 |
| 20260507034004 | 68 | 280 | 0.9 | 1.7 | 0.00 | 0.00 | 0.00 | 86 | 1000.5 |
| 20260507033505 | 68 | 297 | 0.9 | 1.7 | 0.00 | 0.00 | 0.00 | 87 | 1000.6 |
| 20260507033004 | 68 | 317 | 0.9 | 0.9 | 0.00 | 0.00 | 0.00 | 87 | 1000.6 |
| 20260507032504 | 68 | 311 | 0.0 | 1.7 | 0.00 | 0.00 | 0.00 | 87 | 1000.3 |
| 20260507032004 | 68 | 217 | 0.0 | 1.7 | 0.00 | 0.00 | 0.00 | 87 | 1000.1 |
| 20260507031505 | 68 | 254 | 0.9 | 1.7 | 0.00 | 0.00 | 0.00 | 87 | 1000.1 |
| 20260507031004 | 68 | 230 | 0.9 | 1.7 | 0.00 | 0.00 | 0.00 | 87 | 1000.1 |
| 20260507030505 | 68 | 187 | 0.9 | 1.7 | 0.00 | 0.00 | 0.00 | 88 | 1000.1 |
| 20260507025504 | 68 | 98 | 0.0 | 0.9 | 0.00 | 0.00 | 0.00 | 88 | 1000.0 |
| 20260507024504 | 68 | 290 | 0.9 | 1.7 | 0.00 | 0.00 | 0.00 | 88 | 999.9 |
| 20260507023505 | 68 | 225 | 0.9 | 2.6 | 0.00 | 0.00 | 0.00 | 87 | 1000.1 |
| 20260507023004 | 68 | 259 | 0.9 | 2.6 | 0.00 | 0.00 | 0.00 | 87 | 1000.3 |
| 20260507022503 | 68 | 216 | 0.9 | 1.7 | 0.00 | 0.00 | 0.00 | 87 | 1000.2 |
| 20260507022004 | 68 | 263 | 0.0 | 0.9 | 0.00 | 0.00 | 0.00 | 87 | 1000.5 |
| 20260507021004 | 68 | 349 | 0.9 | 1.7 | 0.00 | 0.00 | 0.00 | 87 | 1000.4 |
| 20260507020505 | 68 | 227 | 0.9 | 1.7 | 0.00 | 0.00 | 0.00 | 87 | 1000.4 |
| 20260507020003 | 68 | 221 | 0.9 | 0.9 | 0.00 | 0.00 | 0.00 | 88 | 1000.7 |
| 20260507015505 | 68 | 194 | 0.0 | 0.9 | 0.00 | 0.00 | 0.00 | 88 | 1000.9 |
| 20260507015004 | 68 | 295 | 0.0 | 0.9 | 0.00 | 0.00 | 0.00 | 87 | 1000.7 |
| 20260507014505 | 68 | 285 | 0.0 | 0.9 | 0.00 | 0.00 | 0.00 | 87 | 1000.7 |
| 20260507014005 | 68 | 209 | 0.0 | 0.9 | 0.00 | 0.00 | 0.00 | 87 | 1000.9 |
| 20260507013505 | 68 | 321 | 0.0 | 0.9 | 0.00 | 0.00 | 0.00 | 86 | 1000.5 |
| 20260507013005 | 68 | 295 | 0.9 | 0.9 | 0.00 | 0.00 | 0.00 | 86 | 1000.6 |
| 20260507012505 | 68 | 213 | 0.0 | 0.9 | 0.00 | 0.00 | 0.00 | 86 | 1000.5 |
| 20260507012005 | 68 | 235 | 0.0 | 0.9 | 0.00 | 0.00 | 0.00 | 86 | 1000.5 |
| 20260507011505 | 68 | 216 | 0.9 | 0.9 | 0.00 | 0.00 | 0.00 | 86 | 1000.3 |
| 20260507011004 | 68 | 309 | 0.0 | 0.9 | 0.00 | 0.00 | 0.00 | 86 | 1000.4 |
| 20260507010506 | 68 | 340 | 0.0 | 0.9 | 0.00 | 0.00 | 0.00 | 86 | 1000.5 |
| 20260507005006 | 68 | 281 | 0.9 | 0.9 | 0.00 | 0.00 | 0.00 | 85 | 1000.3 |
| 20260507004504 | 69 | 222 | 0.0 | 0.9 | 0.00 | 0.00 | 0.00 | 85 | 1000.2 |
| 20260507004004 | 69 | 240 | 0.0 | 0.9 | 0.00 | 0.00 | 0.00 | 85 | 1000.1 |
| 20260507003505 | 69 | 285 | 0.0 | 0.9 | 0.00 | 0.00 | 0.00 | 84 | 1000.5 |
| 20260507003004 | 69 | 274 | 0.0 | 1.7 | 0.00 | 0.00 | 0.00 | 84 | 1000.4 |
| 20260507002004 | 69 | 176 | 0.9 | 0.9 | 0.00 | 0.00 | 0.00 | 84 | 1000.6 |
| 20260507001505 | 69 | 171 | 0.0 | 0.0 | 0.00 | 0.00 | 0.00 | 84 | 1000.4 |
| 20260507000505 | 70 | 345 | 0.0 | 0.9 | 0.00 | 0.00 | 0.00 | 83 | 1000.6 |
| 20260506235505 | 70 | 341 | 0.0 | 1.7 | 0.00 | 0.00 | 0.00 | 82 | 1000.6 |
| 20260506235005 | 70 | 342 | 0.9 | 1.7 | 0.00 | 0.00 | 0.00 | 82 | 1000.3 |
| 20260506234505 | 70 | 296 | 0.9 | 1.7 | 0.00 | 0.00 | 0.00 | 81 | 1000.6 |
| 20260506234005 | 70 | 245 | 0.0 | 1.7 | 0.00 | 0.00 | 0.00 | 81 | 1000.1 |
| 20260506233505 | 71 | 330 | 0.0 | 1.7 | 0.00 | 0.00 | 0.00 | 81 | 1000.0 |
| 20260506233006 | 71 | 309 | 0.9 | 1.7 | 0.00 | 0.00 | 0.00 | 80 | 1000.1 |
| 20260506232504 | 71 | 65 | 0.9 | 1.7 | 0.00 | 0.00 | 0.00 | 80 | 1000.1 |
| 20260506232004 | 71 | 293 | 0.9 | 1.7 | 0.00 | 0.00 | 0.00 | 80 | 1000.2 |
| 20260506231506 | 71 | 232 | 0.9 | 1.7 | 0.00 | 0.00 | 0.00 | 79 | 1000.1 |
| 20260506231004 | 71 | 356 | 0.9 | 1.7 | 0.00 | 0.00 | 0.00 | 79 | 1000.1 |
| 20260506230505 | 71 | 238 | 0.9 | 1.7 | 0.00 | 0.00 | 0.00 | 78 | 1000.2 |
| 20260506225506 | 71 | 355 | 0.0 | 0.9 | 0.00 | 0.00 | 0.00 | 79 | 1000.0 |
| 20260506225004 | 71 | 307 | 0.0 | 0.9 | 0.00 | 0.00 | 0.00 | 79 | 1000.2 |
| 20260506224505 | 71 | 327 | 0.0 | 0.9 | 0.00 | 0.00 | 0.00 | 78 | 1000.1 |
| 20260506224004 | 71 | 350 | 0.0 | 0.9 | 0.00 | 0.00 | 0.00 | 78 | 1000.0 |
| 20260506223505 | 71 | 222 | 0.9 | 0.9 | 0.00 | 0.00 | 0.00 | 78 | 1000.5 |
| 20260506223005 | 71 | 320 | 0.0 | 1.7 | 0.00 | 0.00 | 0.00 | 78 | 1000.1 |
| 20260506222504 | 71 | 348 | 0.0 | 1.7 | 0.00 | 0.00 | 0.00 | 77 | 1000.0 |
| 20260506222005 | 71 | 300 | 0.9 | 1.7 | 0.00 | 0.00 | 0.00 | 77 | 1000.2 |
| 20260506221505 | 71 | 299 | 0.9 | 0.9 | 0.00 | 0.00 | 0.00 | 77 | 1000.3 |
| 20260506221005 | 71 | 299 | 0.0 | 5.2 | 0.00 | 0.00 | 0.00 | 77 | 1000.4 |
| 20260506220504 | 71 | 323 | 1.7 | 5.2 | 0.00 | 0.00 | 0.00 | 76 | 1000.0 |
| 20260506214504 | 71 | 308 | 0.9 | 2.6 | 0.00 | 0.00 | 0.00 | 75 | 1000.0 |
| 20260506214005 | 71 | 261 | 1.7 | 2.6 | 0.00 | 0.00 | 0.00 | 75 | 1000.2 |
| 20260506213004 | 71 | 97 | 0.9 | 1.7 | 0.00 | 0.00 | 0.00 | 75 | 1000.3 |
| 20260506212506 | 71 | 288 | 0.9 | 1.7 | 0.00 | 0.00 | 0.00 | 75 | 1000.3 |
| 20260506212005 | 71 | 277 | 0.9 | 1.7 | 0.00 | 0.00 | 0.00 | 76 | 1000.5 |
| 20260506211505 | 71 | 316 | 0.9 | 2.6 | 0.00 | 0.00 | 0.00 | 76 | 1000.5 |
| 20260506211004 | 71 | 349 | 0.9 | 4.3 | 0.00 | 0.00 | 0.00 | 76 | 1000.4 |
| 20260506210505 | 71 | 309 | 0.9 | 4.3 | 0.00 | 0.00 | 0.00 | 77 | 1000.1 |
| 20260506210004 | 71 | 297 | 0.9 | 1.7 | 0.00 | 0.00 | 0.00 | 77 | 1000.2 |
| 20260506205505 | 71 | 331 | 0.9 | 2.6 | 0.00 | 0.00 | 0.00 | 77 | 999.9 |
| 20260506204505 | 70 | 305 | 0.9 | 1.7 | 0.00 | 0.00 | 0.00 | 79 | 1000.5 |
| 20260506203504 | 70 | 279 | 0.9 | 2.6 | 0.00 | 0.00 | 0.00 | 78 | 1000.1 |
| 20260506202504 | 70 | 182 | 1.7 | 2.6 | 0.00 | 0.00 | 0.00 | 79 | 1000.4 |
| 20260506202005 | 70 | 314 | 0.9 | 2.6 | 0.00 | 0.00 | 0.00 | 79 | 1000.2 |
| 20260506201504 | 70 | 333 | 0.9 | 2.6 | 0.00 | 0.00 | 0.00 | 80 | 1000.0 |
| 20260506201004 | 70 | 6 | 0.9 | 2.6 | 0.00 | 0.00 | 0.00 | 80 | 1000.2 |
| 20260506200504 | 70 | 328 | 0.9 | 2.6 | 0.00 | 0.00 | 0.00 | 80 | 1000.2 |
| 20260506200005 | 70 | 349 | 0.0 | 5.2 | 0.00 | 0.00 | 0.00 | 80 | 1000.0 |
| 20260506195504 | 70 | 316 | 1.7 | 7.0 | 0.00 | 0.00 | 0.00 | 80 | 1000.1 |
| 20260506194004 | 70 | 168 | 0.9 | 5.2 | 0.00 | 0.00 | 0.00 | 79 | 999.3 |
| 20260506193506 | 70 | 326 | 1.7 | 5.2 | 0.00 | 0.00 | 0.00 | 79 | 999.5 |
| 20260506193004 | 69 | 335 | 0.9 | 2.6 | 0.00 | 0.00 | 0.00 | 79 | 999.4 |